Hourly Data Report for October 17, 2016

All times are specified in Local Standard Time (LST). Add 1 hour to adjust for Daylight Saving Time where and when it is observed.

CHARLOTTETOWN A
PRINCE EDWARD ISLAND

46°17'21.000" N
63°07'09.000" W
48.50 m
8300301
71706
YYG

Download Data

Hourly Data (October 2016)
Hourly Data Report for October 17, 2016
Temp Definition
°C
Dew Point Temp Definition
°C
Rel Hum Definition
%
Wind Dir Definition
10's deg

Wind Spd Definition
km/h
Visibility Definition
km
Stn Press Definition
kPa
Hmdx Definition


Wind Chill Definition


Weather Definition


TIME
00:00 Legend Double Dagger 12.3 9.9 85 22 19 24.1 100.16     Heavy Rain Showers
01:00 Legend Double Dagger 12.2 10.3 88 22 17 19.3 100.12     Rain Showers
02:00 Legend Double Dagger 12.0 11.1 94 23 14 9.7 100.07     Rain Showers,Fog
03:00 Legend Double Dagger 12.2 11.4 95 26 10 12.9 100.02     Rain Showers
04:00 Legend Double Dagger 12.8 11.9 94 27 11 12.9 99.99     Rain Showers
05:00 Legend Double Dagger 12.6 11.5 93 26 11 12.9 100.00     Cloudy
06:00 Legend Double Dagger 12.5 11.6 94 27 10 12.9 100.03     LegendNANA
07:00 Legend Double Dagger 12.7 11.8 94 28 9 19.3 100.03     LegendNANA
08:00 Legend Double Dagger 12.7 11.6 93 31 15 19.3 100.07     Cloudy
09:00 Legend Double Dagger 13.9 11.3 84 30 16 24.1 100.11     LegendNANA
10:00 Legend Double Dagger 15.0 11.8 81 29 18 24.1 100.12     LegendNANA
11:00 Legend Double Dagger 16.1 9.6 65 33 23 24.1 100.08     Mostly Cloudy
12:00 Legend Double Dagger 15.6 8.4 62 32 22 24.1 100.04     LegendNANA
13:00 Legend Double Dagger 15.0 8.5 65 33 22 24.1 100.09     LegendNANA
14:00 Legend Double Dagger 13.6 9.1 74 33 16 24.1 100.13     Mostly Cloudy
15:00 Legend Double Dagger 11.6 7.2 74 34 18 24.1 100.20     LegendNANA
16:00 Legend Double Dagger 12.2 7.1 71 35 18 24.1 100.19     LegendNANA
17:00 Legend Double Dagger 10.3 6.7 78 33 9 24.1 100.25     Mainly Clear
18:00 Legend Double Dagger 9.9 6.3 78 35 12 24.1 100.36     LegendNANA
19:00 Legend Double Dagger 9.4 5.4 76 34 10 24.1 100.43     LegendNANA
20:00 Legend Double Dagger 9.1 5.9 80 32 7 24.1 100.48     Mostly Cloudy
21:00 Legend Double Dagger 9.5 6.1 79 28 9 24.1 100.55     LegendNANA
22:00 Legend Double Dagger 9.5 5.7 77 29 7 24.1 100.56     LegendNANA
23:00 Legend Double Dagger 8.6 5.0 78 28 12 24.1 100.58     Mainly Clear

Notes on Data Quality.

Legend

  • E = Estimated
  • M = Missing
  • NA = Not Available
  • ‡ = Partner data that is not subject to review by the National Climate Archives
Date modified: